#timestamp,LO_Frequency,Hit,StdDev 
1537506015.4,286046998.2,N
1537506035.3,286046999.4,N
1537506055.1,286046996.6,N
1537506056.0,286046996.6,N
1537506075.8,286046999.0,N
1537506095.7,286046999.7,N
1537506115.5,286047002.7,N
1537506135.3,286047000.1,N
1537506155.2,286047000.5,N
1537506175.0,286047002.8,N
1537506175.9,286047002.8,N
1537506195.8,286047000.1,N
1537506215.6,286047000.3,N
1537506235.4,286047000.1,N
1537506255.3,286047002.1,N
1537506275.1,286047002.3,N
1537506295.8,286047002.4,N
1537506315.7,286047002.6,N
1537506335.5,286047004.0,N
1537506355.3,286047005.9,N
1537506375.2,286047005.6,N
1537506395.0,286047003.1,N
1537506395.9,286047003.1,N
1537506415.8,286047002.6,N
1537506435.6,286047002.7,N
1537506455.4,286047002.7,N
1537506475.3,286047002.8,N
1537506495.1,286047001.1,N
1537506515.8,286047000.1,N
1537506535.7,286047001.0,N
1537506555.5,286047000.2,N
1537506575.4,286047002.2,N
1537506595.2,286047001.5,N
1537506615.0,286047002.0,N
1537506615.9,286047002.0,N
1537506635.8,286047002.8,N
1537506655.6,286047002.2,N
1537506675.4,286047000.4,N
1537506695.3,286047000.4,N
1537506715.1,286047000.4,N
1537506735.9,286047000.5,N
1537506755.7,286047001.0,N
1537506775.5,286046998.2,N
1537506795.4,286047000.8,N
1537506815.2,286046998.6,N
1537506835.0,286046998.6,N
1537506835.9,286046998.6,N
1537506855.8,286047000.9,N
1537506875.6,286046998.2,N
1537506895.5,286046999.3,N
1537506915.3,286046997.0,N
1537506935.1,286046998.3,N
1537506955.9,286047000.7,N
1537506975.7,286047001.0,N
1537506995.5,286046999.0,N
1537507015.4,286046996.7,N
1537507035.2,286046997.2,N
1537507055.1,286046998.7,N
1537507056.0,286046998.7,N
1537507075.8,286046998.6,N
1537507095.6,286046998.8,N
1537507115.5,286046999.2,N
1537507135.3,286047001.0,N
1537507155.1,286047000.5,N
1537507175.9,286047000.7,N
1537507195.7,286047001.0,N
1537507215.6,286046998.2,N
1537507235.4,286047000.6,N
1537507255.2,286046999.9,N
1537507275.1,286046998.1,N
1537507276.0,286046998.1,N
1537507295.8,286046999.4,N
1537507315.6,286046996.8,N
1537507335.5,286046998.8,N
1537507355.3,286047001.2,N
1537507375.2,286046999.0,N
1537507395.9,286046996.6,N
1537507415.7,286046996.6,N
1537507435.6,286046997.8,N
1537507455.4,286046997.6,N
1537507475.2,286046997.7,N
1537507495.1,286046996.5,N
1537507496.0,286046996.5,N
1537507515.8,286046998.6,N
1537507535.7,286046998.6,N
1537507555.5,286046999.4,N
1537507575.3,286046997.5,N
1537507595.2,286046995.3,Y
1537507615.0,286046998.8,P
1537507615.9,286046998.8,P
1537507635.8,286046997.1,P
1537507655.6,286046996.8,Y
1537507675.4,286047000.9,P
1537507695.3,286047000.4,N
1537507715.1,286047001.0,N
1537507735.8,286046999.6,N
1537507755.7,286046995.0,Y
1537507775.5,286046995.6,P
1537507795.4,286046996.1,N
1537507815.2,286046997.4,N
1537507835.0,286046997.9,N
1537507835.9,286046997.9,N
1537507855.8,286046997.7,N
1537507875.6,286046999.4,N
1537507895.4,286046996.9,N
1537507915.3,286046999.5,N
1537507935.1,286046996.8,N
1537507955.9,286046996.5,N
1537507975.7,286047001.2,N
1537507995.5,286047000.5,N
1537508015.4,286047000.8,N
1537508035.2,286046999.3,N
1537508055.1,286046998.2,N
1537508056.0,286046998.2,N
1537508075.8,286046998.2,N
1537508095.6,286046998.7,N
1537508115.5,286047001.0,N
1537508135.3,286046998.8,N
1537508155.1,286046997.3,N
1537508175.9,286046996.9,N
1537508195.7,286046997.5,N
1537508215.6,286046995.6,N
1537508235.4,286046993.5,Y
1537508255.2,286046996.2,P
1537508275.1,286046995.4,P
1537508276.0,286046995.4,P
1537508295.8,286046996.4,Y
1537508315.7,286046999.0,P
1537508335.5,286047000.9,N
1537508355.3,286046998.4,N
1537508375.2,286047001.2,N
1537508395.9,286046998.9,N
1537508415.7,286046998.7,N
1537508435.6,286046999.5,N
1537508455.4,286046999.6,N
1537508475.2,286046996.7,N
1537508495.1,286046997.0,N
1537508496.0,286046997.0,N
1537508515.8,286046996.8,N
1537508535.7,286046996.6,N
1537508555.5,286046999.3,N
1537508575.3,286046998.6,N
1537508595.2,286046998.8,N
1537508615.0,286046998.6,N
1537508615.9,286046998.6,N
1537508635.7,286046999.5,N
1537508655.6,286046996.8,N
1537508675.4,286046997.5,N
1537508695.3,286046995.7,Y
1537508715.1,286046996.5,P
1537508716.0,286046996.5,P
1537508735.8,286046999.0,N
1537508755.7,286046998.9,N
1537508775.5,286046999.4,N
1537508795.3,286046996.5,N
1537508815.2,286046999.4,N
1537508835.0,286046996.5,N
1537508835.9,286046996.5,N
1537508855.8,286046999.5,N
1537508875.6,286046998.3,N
1537508895.4,286047000.6,N
1537508915.3,286047000.3,N
1537508935.1,286047000.2,N
1537508955.8,286047000.8,N
1537508975.7,286047011.9,Y
1537508995.5,286047002.0,P
1537509015.4,286046999.7,N
1537509035.2,286047000.1,N
1537509055.0,286046998.5,N
1537509055.9,286046998.5,N
1537509075.8,286046998.8,N
1537509095.6,286046998.1,N
1537509115.4,286046998.6,N
1537509135.3,286046998.1,N
1537509155.1,286047002.7,N
1537509175.9,286047002.4,N
1537509195.7,286047002.4,N
1537509215.5,286047001.1,N
1537509235.4,286047000.1,N
1537509255.2,286047002.3,N
1537509275.0,286047000.9,N
1537509276.0,286047000.9,N
1537509295.8,286046999.8,N
1537509315.6,286046999.8,N
1537509335.5,286047002.6,N
1537509355.3,286047000.4,N
1537509375.1,286047000.9,N
1537509395.9,286047000.9,N
1537509415.7,286046999.9,N
1537509435.5,286047001.6,N
1537509455.4,286047000.6,N
1537509475.2,286047001.1,N
1537509495.1,286046999.8,N
1537509496.0,286046999.8,N
1537509515.8,286047000.7,N
1537509535.6,286046998.5,N
1537509555.5,286047001.2,N
1537509575.3,286047002.5,N
1537509595.1,286047000.2,N
